MONITOR-2 (RS39S)

Last updated on Mon Sep 15 2025 00:03:09 GMT+0000 (Coordinated Universal Time)

1 57184U 23091U 25257.25057975 .00003706 00000+0 20025-3 0 9998 2 57184 97.5511 312.2972 0011795 358.5344 1.5852 15.15269934122119
UTC large
Height (km)
Speed (km/s)
/
Latitude / Longitude
Inclination (degrees)
Orbital Period (minutes)
Azimuth
Elevation
Range (km)
Doppler Factor

Next 0 passes for location: London (51.5072 / 0.1276)

Sorry there are no passes over London.